Temp
-4 -4 -4 -4 -4 -4 -5 -5 -5 -5 -5 -5 -5 -6 -6 -6 -7 -7 -7 -7 -7 -7 -7 -7 -7 -7 -8 -8 -8 -8 -8 -8 -8 -8 -8 -8 -8 -8 -8 -8 -8 -8 -9
-4 -4 -4 -4 -4 -5 -5 -5 -5 -5 -5 -6 -6 -6 -6 -7 -7 -7 -7 -8 -7 -7 -7 -7 -7 -7 -8 -8 -8 -8 -8 -9 -9 -9 -8 -9 -9 -9 -8 -8 -9 -9 -9
-4 -5 -4 -5 -5 -5 -5 -5 -5 -5 -5 -6 -6 -6 -6 -6 -6 -6 -7 -7 -7 -7 -7 -7 -7 -7 -7 -8 -8 -8 -9 -9 -9 -9 -9 -9 -9 -9 -9 -10 -9 -9 -9
-5 -5 -5 -6 -6 -5 -5 -6 -6 -5 -6 -6 -6 -6 -6 -5 -5 -6 -7 -8 -8 -7 -7 -7 -7 -7 -8 -8 -8 -9 -9 -9 -9 -9 -9 -9 -9 -9 -9 -9 -10 -10 -9
-5 -5 -6 -6 -6 -6 -6 -6 -6 -6 -6 -6 -6 -6 -6 -6 -5 -5 -5 -6 -7 -7 -7 -7 -7 -7 -8 -8 -8 -8 -8 -8 -9 -9 -9 -9 -9 -9 -9 -9 -9 -9 -9
-5 -5 -6 -6 -6 -6 -6 -7 -6 -7 -7 -6 -6 -6 -6 -6 -6 -6 -5 -5 -5 -6 -7 -7 -7 -7 -7 -8 -8 -8 -8 -9 -9 -9 -9 -9 -9 -9 -9 -10 -10 -10 -9
-5 -5 -6 -6 -6 -6 -6 -6 -6 -7 -7 -7 -7 -7 -7 -7 -7 -7 -7 -6 -6 -6 -6 -6 -7 -7 -7 -8 -8 -8 -8 -9 -9 -9 -9 -9 -9 -9 -9 -9 -9 -9 -10
-5 -5 -6 -6 -6 -6 -6 -6 -6 -7 -7 -7 -7 -8 -7 -7 -7 -7 -7 -6 -6 -6 -6 -7 -6 -6 -7 -8 -8 -8 -8 -8 -8 -9 -9 -9 -9 -9 -9 -10 -10 -10 -10
-5 -6 -6 -6 -6 -6 -6 -6 -6 -7 -7 -7 -7 -7 -7 -7 -7 -7 -7 -7 -6 -6 -7 -7 -7 -7 -8 -8 -8 -8 -8 -8 -9 -9 -9 -10 -10 -10 -10 -11 -11 -11 -10
-6 -6 -6 -7 -7 -7 -6 -6 -6 -6 -6 -7 -7 -7 -7 -7 -7 -7 -8 -8 -7 -7 -8 -8 -7 -7 -8 -8 -8 -8 -8 -9 -9 -9 -9 -9 -9 -10 -11 -11 -11 -10 -10
-6 -6 -6 -6 -7 -7 -7 -6 -6 -6 -6 -6 -6 -6 -6 -6 -7 -7 -8 -8 -8 -8 -7 -7 -8 -8 -8 -8 -8 -8 -9 -9 -9 -9 -9 -9 -10 -10 -10 -10 -10 -10 -9
-5 -5 -6 -6 -6 -6 -6 -6 -6 -6 -6 -6 -6 -6 -6 -7 -7 -7 -7 -7 -7 -7 -7 -8 -8 -7 -7 -8 -8 -8 -8 -8 -8 -9 -9 -10 -10 -11 -9 -9 -9 -9 -9
-4 -4 -4 -4 -4 -4 -4 -5 -5 -5 -5 -5 -5 -6 -6 -7 -7 -7 -7 -7 -7 -7 -7 -8 -7 -8 -8 -8 -8 -8 -9 -9 -9 -9 -9 -9 -9 -9 -8 -9 -9 -9 -9
-4 -4 -4 -4 -4 -4 -4 -4 -4 -4 -5 -5 -5 -6 -6 -7 -7 -7 -7 -7 -8 -8 -8 -8 -8 -8 -8 -8 -8 -8 -9 -8 -9 -9 -9 -9 -10 -9 -9 -8 -9 -9 -9
-4 -4 -4 -4 -4 -4 -4 -4 -4 -4 -4 -4 -5 -6 -6 -6 -7 -7 -7 -7 -8 -8 -8 -8 -8 -8 -8 -8 -8 -8 -8 -8 -8 -9 -9 -8 -9 -9 -9 -8 -9 -9 -9
-4 -5 -4 -4 -4 -4 -4 -4 -4 -4 -4 -4 -5 -6 -6 -6 -7 -7 -7 -7 -7 -6 -7 -7 -7 -8 -7 -7 -7 -8 -9 -9 -9 -9 -9 -9 -9 -9 -9 -8 -9 -9 -10
-5 -5 -5 -5 -4 -4 -4 -4 -4 -4 -5 -5 -6 -6 -7 -6 -6 -7 -7 -7 -7 -7 -6 -7 -7 -7 -7 -7 -7 -7 -7 -8 -8 -8 -9 -9 -10 -10 -8 -9 -9 -10 -10
-5 -5 -5 -5 -5 -5 -5 -5 -5 -5 -5 -5 -6 -5 -6 -6 -6 -7 -7 -8 -8 -8 -7 -7 -7 -7 -6 -6 -7 -7 -6 -7 -7 -8 -8 -7 -8 -8 -9 -8 -8 -11 -10
-5 -5 -6 -5 -5 -5 -5 -6 -5 -5 -5 -5 -5 -6 -6 -6 -7 -7 -8 -8 -8 -8 -7 -7 -7 -6 -7 -7 -6 -6 -7 -7 -7 -8 -5 -5 -7 -8 -9 -8 -8 -10 -10
-6 -6 -6 -6 -6 -6 -6 -6 -6 -6 -6 -6 -6 -6 -6 -6 -7 -8 -8 -8 -8 -7 -7 -7 -7 -7 -7 -6 -5 -5 -6 -7 -8 -9 -7 -7 -7 -9 -10 -9 -10 -10 -11
-7 -7 -7 -7 -7 -7 -7 -7 -7 -7 -7 -7 -7 -7 -8 -8 -8 -7 -7 -7 -7 -7 -7 -7 -7 -7 -6 -5 -5 -6 -7 -8 -8 -8 -8 -8 -9 -9 -10 -9 -10 -11 -11
-8 -8 -7 -7 -7 -7 -8 -8 -8 -8 -8 -8 -8 -9 -9 -9 -8 -8 -8 -7 -8 -8 -7 -7 -7 -6 -7 -6 -6 -7 -8 -8 -9 -9 -9 -9 -9 -10 -10 -11 -10 -10 -11
-7 -7 -7 -8 -9 -9 -9 -9 -9 -9 -9 -9 -9 -9 -9 -10 -9 -8 -8 -8 -8 -7 -8 -8 -7 -7 -7 -8 -8 -9 -10 -9 -9 -10 -10 -10 -10 -10 -10 -10 -10 -11 -10
-7 -8 -9 -9 -9 -9 -9 -9 -10 -10 -9 -9 -9 -9 -9 -9 -9 -8 -7 -8 -8 -8 -8 -9 -9 -8 -7 -9 -8 -9 -10 -9 -9 -9 -10 -10 -10 -10 -10 -10 -10 -11 -11
-9 -9 -10 -10 -10 -10 -10 -10 -10 -10 -10 -10 -10 -10 -10 -9 -10 -9 -9 -9 -9 -9 -9 -9 -10 -9 -9 -9 -10 -10 -10 -10 -10 -10 -10 -10 -10 -10 -10 -10 -10 -11 -11
-10 -10 -11 -11 -10 -10 -10 -10 -10 -10 -10 -10 -10 -10 -10 -10 -10 -9 -9 -9 -9 -9 -9 -10 -10 -10 -10 -10 -10 -10 -10 -10 -10 -10 -10 -10 -11 -11 -11 -11 -11 -11 -11
Height
5909 5912 5915 5917 5918 5919 5920 5921 5923 5924 5925 5928 5930 5930 5931 5932 5932 5933 5934 5935 5936 5936 5936 5937 5936 5936 5935 5935 5934 5933 5932 5931 5929 5927 5926 5924 5921 5919 5916 5914 5912 5911 5907
5905 5908 5911 5913 5914 5916 5917 5918 5918 5919 5920 5922 5925 5925 5927 5928 5929 5930 5931 5932 5933 5934 5935 5935 5933 5933 5933 5933 5932 5931 5930 5929 5928 5925 5925 5922 5919 5914 5914 5912 5909 5906 5905
5903 5906 5908 5910 5912 5913 5914 5915 5916 5917 5918 5919 5921 5922 5923 5924 5925 5925 5925 5926 5928 5929 5929 5930 5930 5930 5930 5929 5929 5929 5928 5926 5925 5924 5921 5919 5917 5915 5912 5907 5906 5903 5898
5900 5903 5906 5908 5909 5911 5912 5913 5914 5914 5916 5917 5918 5919 5920 5920 5919 5918 5918 5919 5921 5922 5924 5925 5926 5927 5926 5927 5926 5924 5924 5923 5921 5919 5916 5913 5912 5912 5910 5907 5904 5901 5897
5897 5900 5903 5905 5907 5909 5910 5912 5913 5914 5914 5915 5916 5916 5916 5916 5915 5915 5915 5916 5917 5919 5921 5922 5923 5923 5923 5922 5922 5920 5919 5919 5919 5916 5913 5911 5907 5904 5903 5900 5895 5892 5889
5894 5897 5900 5902 5905 5907 5908 5910 5911 5912 5913 5913 5914 5914 5914 5914 5914 5914 5914 5914 5915 5916 5917 5918 5919 5920 5919 5918 5917 5916 5916 5914 5911 5908 5908 5906 5903 5899 5895 5891 5888 5884 5884
5889 5893 5897 5899 5902 5904 5906 5907 5908 5909 5910 5911 5912 5913 5913 5913 5912 5913 5913 5913 5915 5915 5915 5915 5915 5915 5914 5913 5912 5911 5909 5908 5906 5903 5901 5897 5895 5892 5888 5883 5878 5874 5874
5884 5888 5892 5895 5898 5900 5902 5903 5905 5905 5906 5907 5908 5909 5910 5911 5911 5911 5910 5910 5912 5912 5912 5911 5910 5910 5909 5908 5906 5905 5905 5901 5901 5898 5895 5891 5886 5882 5879 5877 5871 5868 5865
5878 5883 5886 5889 5891 5894 5897 5899 5900 5901 5901 5902 5902 5904 5905 5907 5907 5907 5905 5904 5906 5906 5906 5906 5905 5903 5903 5902 5900 5899 5897 5894 5892 5889 5884 5883 5879 5874 5868 5866 5861 5855 5853
5873 5877 5878 5881 5884 5887 5890 5893 5894 5895 5896 5896 5897 5898 5900 5901 5901 5901 5899 5897 5897 5899 5899 5898 5897 5897 5894 5892 5891 5891 5890 5889 5882 5877 5872 5870 5866 5863 5858 5853 5845 5842 5838
5866 5867 5869 5873 5876 5880 5881 5884 5886 5887 5888 5889 5890 5891 5892 5893 5894 5893 5892 5889 5889 5887 5888 5888 5887 5885 5883 5882 5879 5877 5879 5876 5875 5867 5866 5861 5855 5849 5839 5835 5830 5828 5826
5853 5858 5862 5864 5867 5869 5871 5874 5876 5877 5879 5880 5881 5882 5883 5883 5884 5885 5884 5881 5881 5876 5877 5878 5875 5874 5873 5869 5866 5865 5865 5861 5859 5857 5853 5847 5840 5835 5825 5823 5821 5817 5814
5846 5850 5853 5855 5858 5859 5861 5864 5866 5868 5869 5870 5870 5871 5873 5871 5872 5872 5873 5873 5872 5867 5867 5867 5863 5861 5859 5859 5856 5854 5850 5845 5840 5844 5840 5833 5824 5818 5814 5806 5810 5805 5802
5838 5841 5844 5847 5850 5851 5853 5855 5857 5858 5860 5860 5861 5862 5862 5861 5862 5862 5862 5863 5862 5860 5857 5854 5852 5848 5844 5843 5842 5838 5833 5830 5825 5824 5820 5821 5811 5803 5805 5799 5799 5795 5791
5828 5831 5834 5837 5840 5842 5843 5846 5848 5849 5851 5851 5851 5851 5851 5852 5851 5852 5850 5849 5848 5849 5844 5840 5838 5836 5833 5828 5824 5821 5817 5812 5809 5805 5801 5803 5799 5793 5785 5787 5786 5782 5782
5818 5821 5824 5826 5830 5832 5834 5835 5838 5839 5841 5841 5841 5841 5841 5841 5840 5838 5836 5834 5831 5831 5831 5828 5825 5823 5820 5815 5810 5804 5798 5792 5791 5786 5783 5782 5781 5776 5766 5771 5768 5769 5771
5808 5811 5814 5816 5818 5821 5823 5825 5826 5827 5828 5828 5829 5829 5828 5827 5826 5824 5822 5819 5817 5815 5811 5812 5810 5806 5803 5797 5794 5789 5784 5778 5773 5762 5757 5755 5752 5752 5749 5755 5757 5758 5762
5797 5799 5802 5803 5807 5812 5813 5813 5814 5816 5816 5817 5817 5816 5815 5814 5812 5810 5808 5805 5803 5800 5795 5792 5791 5789 5784 5780 5776 5771 5767 5760 5752 5749 5723 5717 5718 5732 5733 5743 5750 5752 5756
5785 5787 5790 5793 5796 5798 5800 5800 5801 5803 5803 5803 5803 5802 5799 5798 5797 5796 5794 5791 5790 5789 5785 5779 5774 5770 5764 5759 5754 5750 5746 5741 5736 5731 5711 5705 5698 5724 5731 5732 5734 5739 5744
5772 5774 5778 5780 5781 5784 5786 5788 5788 5788 5788 5789 5788 5787 5786 5785 5783 5781 5780 5779 5776 5774 5770 5764 5759 5754 5750 5745 5739 5731 5726 5725 5716 5721 5705 5700 5710 5717 5723 5723 5725 5729 5734
5756 5758 5762 5765 5767 5769 5770 5771 5772 5772 5772 5772 5773 5772 5772 5771 5769 5765 5764 5762 5760 5758 5754 5750 5744 5739 5734 5727 5720 5714 5711 5708 5708 5706 5704 5703 5707 5712 5714 5714 5718 5721 5726
5739 5741 5743 5746 5749 5752 5755 5756 5757 5758 5758 5758 5759 5759 5758 5756 5755 5751 5748 5745 5743 5741 5739 5736 5731 5726 5721 5714 5708 5701 5697 5698 5700 5701 5702 5701 5703 5705 5709 5712 5714 5717 5720
5721 5724 5727 5731 5733 5734 5740 5740 5741 5743 5744 5745 5744 5744 5743 5742 5740 5737 5733 5731 5730 5728 5726 5724 5721 5718 5714 5707 5705 5703 5704 5700 5699 5700 5701 5703 5704 5704 5706 5706 5707 5709 5710
5703 5706 5709 5709 5713 5718 5721 5723 5725 5726 5727 5728 5729 5728 5727 5726 5723 5721 5718 5716 5716 5715 5714 5712 5711 5707 5703 5700 5702 5696 5699 5700 5701 5699 5699 5699 5699 5700 5700 5701 5699 5700 5703
5684 5687 5689 5690 5695 5699 5701 5703 5707 5709 5710 5710 5712 5713 5711 5710 5708 5706 5704 5702 5703 5702 5702 5701 5700 5699 5694 5693 5694 5693 5692 5692 5690 5692 5694 5694 5694 5693 5693 5692 5694 5694 5694
5667 5672 5676 5678 5681 5684 5687 5689 5691 5693 5692 5694 5696 5696 5696 5695 5693 5690 5689 5687 5687 5688 5690 5688 5688 5689 5686 5686 5685 5683 5684 5685 5685 5684 5683 5686 5685 5685 5683 5683 5684 5684 5684
Wind_Speed
18 15 13 14 14 11 11 13 16 19 21 18 19 18 17 15 13 11 11 11 12 12 12 11 8 7 7 7 7 9 11 13 14 13 14 17 20 20 21 21 22 25 28
16 15 13 8 5 5 5 6 8 10 12 16 15 19 17 17 17 15 14 12 13 12 13 14 13 11 8 9 10 11 13 13 14 17 16 18 20 27 24 24 27 26 26
16 16 13 8 6 6 5 5 7 9 11 11 11 14 15 16 15 17 17 15 13 16 16 16 16 15 15 11 11 13 13 15 17 18 20 21 20 23 29 31 29 33 34
21 19 14 9 8 6 6 6 7 9 10 10 10 11 11 11 9 14 17 17 15 18 19 18 18 18 19 16 15 17 15 19 23 26 29 30 30 28 29 34 31 32 33
20 19 15 13 8 5 7 7 7 8 8 9 10 10 9 7 9 10 13 14 14 17 19 20 19 21 22 21 21 22 24 24 26 28 30 33 36 36 35 37 42 36 37
22 18 17 14 11 9 9 9 6 9 11 11 12 11 8 7 8 8 9 10 12 15 17 21 23 22 24 26 27 28 29 30 32 35 35 35 37 39 42 44 45 46 44
19 17 15 14 12 10 12 10 10 11 11 13 14 15 11 9 9 9 11 13 14 17 21 21 22 25 28 29 31 33 35 35 35 37 38 40 43 44 45 46 52 52 48
25 21 20 17 15 14 14 18 16 15 15 14 16 18 16 11 14 15 15 16 14 16 19 23 24 26 26 29 34 34 35 37 36 37 40 43 47 51 52 53 57 59 55
26 24 26 22 21 18 19 19 19 19 20 19 20 16 16 16 17 21 23 26 25 23 26 28 32 32 31 32 33 32 33 35 38 41 48 48 50 53 57 60 64 66 60
28 28 33 33 29 29 25 26 27 28 25 25 24 21 20 19 19 23 29 34 34 31 30 34 34 32 38 39 40 43 43 43 47 51 55 58 60 61 63 65 69 69 68
29 34 37 35 35 35 38 34 32 32 31 28 25 24 22 23 21 24 29 35 37 39 38 35 38 36 37 37 39 43 43 50 53 60 61 64 68 67 69 71 71 70 67
30 32 35 39 41 41 40 40 41 37 35 30 29 29 28 26 29 30 32 36 38 44 44 42 46 45 42 48 41 41 43 47 51 55 60 66 70 68 77 61 65 67 64
29 28 29 31 31 33 34 37 37 35 35 33 33 32 32 35 36 39 38 37 41 45 45 50 51 51 52 52 50 50 52 55 59 58 65 76 75 76 70 77 41 40 42
32 32 32 33 32 33 34 34 35 35 36 36 37 37 38 41 42 43 43 41 42 45 49 51 54 57 60 63 56 60 60 61 62 65 75 73 66 63 64 58 36 39 31
37 36 34 35 35 34 37 37 38 38 39 40 42 42 43 43 45 46 46 47 48 48 51 54 53 55 61 64 60 66 67 68 68 68 66 69 68 71 78 41 43 44 32
38 39 38 37 38 38 38 39 39 41 42 42 43 45 47 47 48 51 53 54 56 56 54 56 57 59 58 57 58 66 70 72 71 73 74 74 76 73 72 45 41 43 27
38 38 39 40 41 41 42 43 44 44 43 45 46 48 51 54 56 58 58 60 62 62 61 59 59 61 62 60 63 69 68 71 70 77 80 79 75 80 54 57 54 23 23
41 42 42 44 43 42 42 44 44 45 45 46 48 51 55 57 59 60 62 64 66 64 64 65 63 63 66 66 66 64 64 66 70 71 88 77 62 48 38 52 42 16 22
44 44 44 44 45 44 45 47 48 49 50 51 53 56 59 60 61 62 63 65 64 64 63 64 65 64 65 62 59 59 62 66 60 64 66 52 40 39 46 47 40 32 34
45 46 47 49 51 50 50 51 53 55 56 58 60 61 62 64 64 65 66 65 62 62 64 58 56 54 52 52 55 61 65 57 67 57 42 34 40 39 38 42 34 28 25
50 51 50 52 55 55 57 59 60 60 62 62 63 64 65 65 65 68 67 65 64 63 55 51 46 47 48 52 60 62 57 40 44 41 36 36 27 37 28 26 22 17 22
57 58 58 57 60 62 63 64 65 67 67 67 66 65 66 66 66 67 66 64 60 53 53 46 42 44 46 50 47 35 29 22 19 23 24 16 21 15 19 16 17 21 22
64 61 62 64 66 67 65 67 69 69 69 69 68 65 62 62 62 60 56 54 53 53 50 44 39 37 41 31 17 15 15 8 5 7 12 17 21 19 20 21 22 26 27
64 66 67 71 71 69 69 70 69 69 69 70 68 67 63 58 55 56 57 49 48 48 45 41 39 37 39 33 27 18 13 15 15 12 15 18 19 21 24 28 30 29 28
67 68 67 66 66 66 67 68 67 68 69 70 69 67 62 59 59 55 52 49 47 45 45 41 41 39 38 35 20 17 18 18 20 22 25 28 30 28 28 28 28 28 27
66 66 65 65 67 67 66 67 66 70 72 71 71 67 64 62 59 53 52 50 50 49 48 41 42 44 40 33 31 29 27 29 30 29 30 34 35 30 27 30 31 30 30
Wind_Direction
220 229 243 254 259 265 262 260 262 263 266 261 262 264 272 274 275 278 289 269 250 255 260 268 277 290 305 320 330 320 303 320 317 312 317 320 320 322 331 330 322 326 331
226 239 245 239 238 246 261 280 285 281 275 276 269 275 276 276 277 276 278 285 262 252 264 268 267 271 284 303 313 322 306 317 310 318 319 325 331 332 328 323 323 323 326
235 237 229 232 243 269 281 297 300 286 274 275 280 275 285 289 288 279 271 269 256 243 245 260 259 264 275 287 304 317 315 318 317 320 317 318 319 324 331 330 325 327 330
234 231 230 242 250 276 315 330 325 310 303 307 308 309 313 313 292 265 259 256 249 241 239 248 260 261 270 285 295 297 300 306 310 311 310 311 312 315 318 324 323 321 327
227 228 233 240 247 284 310 320 347 335 310 300 300 302 303 305 311 300 272 262 252 247 255 255 263 265 268 275 281 284 295 301 306 302 304 308 308 312 313 316 318 320 319
227 233 230 237 261 277 290 300 319 314 308 299 299 304 310 331 332 321 304 279 257 259 264 264 264 269 274 277 282 287 293 300 304 305 304 305 307 310 312 313 314 315 319
232 227 232 238 250 265 270 277 285 293 298 309 316 288 289 291 298 302 299 303 301 296 296 289 279 273 274 275 279 285 291 293 295 296 300 302 302 304 305 304 306 309 317
238 237 239 243 249 255 267 264 275 283 290 302 298 298 274 281 289 291 293 295 303 311 310 302 300 299 292 287 281 283 287 291 293 293 296 296 298 300 300 299 300 301 304
240 245 250 253 262 259 266 269 260 261 275 288 291 299 283 290 297 294 295 298 302 304 304 307 295 296 294 293 288 285 284 285 289 287 287 289 289 292 292 295 294 296 298
249 248 253 257 260 268 271 271 275 267 264 270 278 284 282 288 297 299 301 295 293 296 304 296 310 300 289 282 284 285 284 286 282 281 283 285 286 289 291 290 289 292 293
248 251 253 254 259 261 263 267 267 266 265 267 273 274 270 280 280 280 286 287 288 287 287 293 296 292 285 278 281 282 285 283 285 287 289 290 289 288 285 285 287 291 294
237 234 244 250 253 256 258 260 263 265 263 267 266 268 275 273 272 278 275 277 277 280 288 291 289 290 290 295 290 285 292 293 286 285 289 291 290 283 288 296 312 299 297
237 240 240 244 249 253 253 252 254 258 262 265 268 269 275 278 281 280 280 278 279 282 284 288 288 291 292 291 295 295 293 294 293 290 293 288 286 283 294 302 303 307 302
242 244 247 249 250 255 259 257 259 261 262 266 268 270 271 272 274 278 276 277 282 283 286 287 284 286 289 294 294 295 293 289 292 295 285 300 302 304 289 300 303 311 284
245 245 246 251 251 252 258 259 262 264 266 268 269 271 273 273 274 277 280 279 277 280 281 282 284 287 290 294 295 295 293 291 293 292 288 290 292 293 291 289 300 305 273
247 248 248 249 251 252 254 257 259 262 264 266 268 270 274 277 277 278 278 279 280 280 279 283 287 289 296 295 294 292 292 292 292 289 286 285 284 284 284 279 312 303 250
247 248 248 248 250 250 252 254 256 257 260 264 266 270 272 274 275 277 279 281 283 286 286 287 293 298 298 293 290 288 288 289 287 286 285 283 279 276 261 277 296 242 243
244 245 245 246 252 251 249 251 252 254 260 264 266 268 270 272 274 276 278 279 281 285 289 294 294 294 295 292 288 288 292 290 288 291 285 279 270 259 281 282 290 236 258
241 244 247 250 252 251 249 250 255 257 259 260 263 264 265 268 270 272 274 277 283 287 291 294 295 291 290 291 293 293 291 289 291 295 264 260 238 254 268 292 293 281 292
239 239 241 244 246 248 250 251 252 255 258 258 260 262 264 266 270 274 277 281 283 287 293 289 287 291 293 294 295 291 287 286 292 289 240 248 275 281 283 289 287 273 258
243 243 242 241 240 244 247 248 252 256 259 262 264 267 270 275 278 281 283 284 287 294 293 291 291 294 295 297 294 292 287 282 281 282 261 281 265 272 279 283 254 246 261
241 242 244 243 243 244 246 249 252 255 259 262 267 271 275 279 283 287 290 287 287 290 291 293 294 297 303 304 299 291 284 274 275 272 268 265 204 249 267 255 270 271 268
246 242 242 242 243 247 250 252 255 257 261 265 267 271 277 279 284 287 288 286 288 289 288 289 288 295 295 314 324 353 340 295 261 258 261 252 252 262 264 269 274 282 278
241 241 241 242 244 248 252 254 257 260 263 267 273 274 276 277 282 285 285 282 282 286 285 284 284 291 292 303 299 312 278 289 309 293 272 272 274 278 282 284 280 275 265
237 242 246 249 250 252 254 258 261 264 266 267 270 272 270 275 283 281 282 279 278 280 279 279 282 283 285 290 294 282 283 284 286 289 281 276 281 280 277 279 274 266 263
240 243 246 250 252 255 258 260 263 265 266 267 268 269 267 275 277 278 278 274 272 276 276 273 277 277 275 274 277 273 270 275 278 287 285 282 278 278 275 275 274 269 266